Terug naar catalogus

FENGYUN 1C DEB

ActiefPO
NORAD 30885·DEBRIS·🇨🇳 China

Gelanceerd May 10, 1999 vanaf Taiyuan Satellite Launch Center

Loading…

Volgende Passages (komende 24 uur)

TLE

VersSource: Space-Track

Epoch: Sep 13, 2026, 14:08 UTC

1 30885U 99025AXX 26256.58925823  .00004813  00000-0  11502-2 0  9999
2 30885  99.0119 122.2194 0051092 109.3790 280.7211 14.53341455  9388

Volg FENGYUN 1C DEB in realtime met AllMySat

Download on the App Store